Regional Weather Roundup
Issued by NWS Columbia, SC

Home | Current Version | Previous Version | Text Only | Print | Product List | Glossary On
Versions: 1 2 3 4 5 6 7 8 9 10 11 12 13 14 15 16 17 18 19 20 21 22 23 24 25 26 27 28
000
ASUS42 KCAE 271710
RWRCAE
REGIONAL WEATHER ROUNDUP
NATIONAL WEATHER SERVICE COLUMBIA SC
100 PM EDT SAT AUG 27 2016

NOTE: "FAIR" INDICATES FEW OR NO CLOUDS BELOW 12,000 FEET WITH NO
SIGNIFICANT WEATHER AND/OR OBSTRUCTIONS TO VISIBILITY.

NOT ALL STATIONS ARE QUALITY CONTROLLED BY THE NATIONAL
WEATHER SERVICE. USE DATA WITH CAUTION...ESPECIALLY
DEWPOINT OBSERVATIONS.

SCZ001>056-GAZ040-063>065-077-271800-
...UPSTATE SOUTH CAROLINA...

CITY           SKY/WX    TMP DP  RH WIND       PRES   REMARKS
ANDERSON       SUNNY     90  73  57 SE9       30.13F HX  98
LIBERTY        SUNNY     88  74  63 SE7       30.15S HX  97
SPARTANBURG    MOSUNNY   91  72  52 SE8       30.14S HX  98
CLEMSON        MOSUNNY   91  73  55 VRB6      30.15F HX  99
GREENVILLE     PTSUNNY   91  71  51 SE10      30.16S HX  97
GREENWOOD      PTSUNNY   89  71  55 NE8       30.14F HX  95
GREER          PTSUNNY   89  72  56 SE8       30.14S HX  96
ROCK HILL      MOSUNNY   93  70  46 S7        30.14F HX  99
CHESTER        PTSUNNY   88  68  51 E3        30.14S
LAURENS        PTSUNNY   86  73  66 CALM      30.14S HAZE


...CENTRAL SOUTH CAROLINA...

CITY           SKY/WX    TMP DP  RH WIND       PRES   REMARKS
COLUMBIA APT   PTSUNNY   92  70  48 E12       30.09F HX  97
COLUMBIA OWENS MOSUNNY   92  70  48 SE8       30.11S HX  97
MCENTIRE ANGB  PTSUNNY   92  71  49 E13G18    30.10F HX  99
ORANGEBURG     SUNNY     91  67  44 E12G23    30.09F
SUMTER SHAW    SUNNY     92  72  51 E14       30.08F HX  99
NEWBERRY       PTSUNNY   88  73  62 CALM      30.15F HX  96
AIKEN          FAIR      90  70  51 E12G18    30.14S HX  95
MANNING        FAIR      90  70  51 E9        30.09F HX  95
LANCASTER      MOSUNNY   91  70  49 E8G18     30.13S HX  97
WINNSBORO      SUNNY     91  70  49 E9        30.12F HX  97


...EASTERN AND COASTAL SOUTH CAROLINA...

CITY           SKY/WX    TMP DP  RH WIND       PRES   REMARKS
MYRTLE BEACH   MOSUNNY   90  68  48 SE14      30.12F
N MYRTLE BCH   SUNNY     87  74  64 E9        30.10F HX  95
CONWAY         FAIR      91  72  52 E9        30.10S HAZE    HX  98
MARION         PTSUNNY   90  72  55 E8        30.10F HX  96
HARTSVILLE     FAIR      90  70  51 E7        30.11F HX  95
FLORENCE       MOSUNNY   95  72  47 E15G22    30.10F HX 103
DARLINGTON     PTSUNNY   93  74  53 E9G16     30.11  HX 103
CHARLESTON APT MOSUNNY   91  64  40 SE13      30.08F
MOUNT PLEASANT FAIR      88  73  62 E6        30.08F HX  96
WALTERBORO     MOSUNNY   91  68  46 E9        30.08F HX  95
BEAUFORT       SUNNY     89  71  55 E10G20    30.08S HX  95


...EASTERN GEORGIA...

CITY           SKY/WX    TMP DP  RH WIND       PRES   REMARKS
AUGUSTA BUSH F MOSUNNY   93  70  46 E12       30.08S HX  99
AUGUSTA DANIEL PTSUNNY   92  71  50 NE14G22   30.10F HX  98
THOMSON        MOSUNNY   93  74  54 MISG      30.14F HX 102
WASHINGTON     FAIR      90  73  58 E7        30.12F HX  98
CLAXTON        FAIR      90  69  51 NE7G16    30.07F
STATESBORO     SUNNY     91  68  46 SE8       30.08F
SAVANNAH       PTSUNNY   90  70  51 E13G21    30.07F HX  95


...SOUTHERN NORTH CAROLINA...

CITY           SKY/WX    TMP DP  RH WIND       PRES   REMARKS
CHARLOTTE      MOSUNNY   93  71  48 NE10      30.13F HX 100
MONROE         MOSUNNY   93  68  43 VRB7      30.13S HX  97
ROCKINGHAM     MOSUNNY   92  73  53 E5        30.11F HX 100
RUTHERFORDTON    N/A     91  71  51 E3        30.16F HX  97
ASHEVILLE      MOSUNNY   85  67  54 SE6       30.23F

$$




USA.gov is the U.S. government's official web portal to all federal, state and local government web resources and services.